INSAT-3DS

Last updated on Tue Sep 22 2026 00:02:54 GMT+0000 (Coordinated Universal Time)

1 58990U 24033A 26264.50536409 -.00000160 00000+0 00000+0 0 9991 2 58990 0.0144 222.0228 0001355 318.7399 83.6538 1.00272694 48033
UTC large
Height (km)
Speed (km/s)
/
Latitude / Longitude
Inclination (degrees)
Orbital Period (minutes)
Azimuth
Elevation
Range (km)
Doppler Factor

Next 0 passes for location: London (51.5072 / 0.1276)

No passes found over London.
INSAT-3DS